sat.trackr.live / text

‹ back to catalog

ONEWEB-0309

NORAD 49095 · 2021-075W

PAYLOAD ACTIVE UNKNOWN

§ Identity

Operator
Country
UK
Launch date
2021-08-21
Launch site
TYMSC
Launch vehicle
Mass (kg)
RCS (m²)

Purposes: comms

External: N2YO · Heavens-Above · Gunter

§ Orbital elements

Epoch: 2026-09-19T13:17:13.180128Z

Period
109.29 min
Inclination
87.9198°
Eccentricity
0.0001411
Mean motion
13.17648694 rev/d
Perigee alt
1,192.6 km
Apogee alt
1,194.8 km
Semi-major
7,571.9 km
B*
3.3003e-5
RAAN
347.1236°
Arg perigee
102.4600°
Mean anomaly
257.6689°
Rev number
24,600

§ Raw data

ONEWEB-03091 49095U 21075W   26262.55362477  .00000026  00000+0  33003-4 0  99992 49095  87.9198 347.1236 0001411 102.4600 257.6689 13.17648694246001

JSON: /api/v1/satellites/49095 · /tle

For live sub-satellite position, see the globe view (requires WebGL).

§ Visibility from observer

Set your observer location to see the next 7 days of passes ≥ 10°. The values pass through the URL so the page stays shareable.

No JS? Fill the form by hand. The geolocation button needs JavaScript.